Fort Polk, LA

3:01 PM CDT on August 23, 2017 (GMT -0500)
Fort Polk

Weather History for KAQV - September, 2012

Change the Weather History Date:

Thursday, September 6, 2012

  Actual Average (KPOE) Record (KPOE)
Temperature  
Mean Temperature 86 °F -  
Max Temperature 97 °F 87 °F 96 °F (2012)
Min Temperature 75 °F 68 °F 57 °F (2011)
Cooling Degree Days 21    
Growing Degree Days 36 (Base 50)    
Moisture  
Dew Point 73 °F    
Average Humidity 70    
Maximum Humidity 94    
Minimum Humidity 39    
Precipitation  
Precipitation 0.00 in - - ()
Sea Level Pressure  
Sea Level Pressure 29.88 in    
Wind  
Wind Speed 2 mph (West)    
Max Wind Speed 5 mph    
Max Gust Speed -    
Visibility 10 miles    
Events      
Averages and records for this station are not official NWS values.
T = Trace of Precipitation, MM = Missing Value Source: NWS Daily Summary

Daily Weather History Graph

Daily Weather History Graph

Search for Another Location

Airport or City:

Trip Planner

Search our weather history database for the weather conditions in past years. The results will help you decide how hot, cold, wet, or windy it might be!

Date:

Astronomy

Sep. 06, 2012 Rise Set
Actual Time 6:52 AM CDT 7:29 PM CDT
Civil Twilight 6:27 AM CDT 7:54 PM CDT
Nautical Twilight 5:58 AM CDT 8:23 PM CDT
Astronomical Twilight 5:29 AM CDT 8:52 PM CDT
Moon 11:07 PM CDT (9/6) 12:26 PM CDT (9/6)
Length of Visible Light 13h 26m
Length of Day
12h 37m
Waning Gibbous, 67% of the Moon is Illuminated
Sep 6
Waning Gibbous
Sep 8
Last Quarter
Sep 15
New
Sep 22
First Quarter
Sep 29
Full

Hourly Weather History & Observations

Time (CDT) Temp. Heat Index Dew Point Humidity Pressure Visibility Wind Dir Wind Speed Gust Speed Precip Events Conditions
12:56 AM 78.1 °F - 73.9 °F 87% 29.86 in 10.0 mi Calm Calm - N/A   Clear
1:56 AM 77.0 °F - 73.9 °F 90% 29.86 in 10.0 mi Calm Calm - N/A   Clear
2:56 AM 78.1 °F - 73.9 °F 87% 29.88 in 10.0 mi SW 4.6 mph - N/A   Clear
3:56 AM 77.0 °F - 73.9 °F 90% 29.89 in 7.0 mi Variable 4.6 mph - N/A   Clear
4:56 AM 77.0 °F - 73.9 °F 90% 29.89 in 10.0 mi Variable 3.5 mph - N/A   Clear
5:56 AM 75.9 °F - 73.9 °F 94% 29.90 in 10.0 mi Calm Calm - N/A   Clear
6:56 AM 75.9 °F - 73.9 °F 94% 29.91 in 10.0 mi Calm Calm - N/A   Clear
7:56 AM 78.1 °F - 75.0 °F 90% 29.93 in 10.0 mi Variable 4.6 mph - N/A   Clear
8:56 AM 82.9 °F 89.4 °F 73.9 °F 74% 29.92 in 10.0 mi WSW 4.6 mph - N/A   Clear
9:56 AM 86.0 °F 92.2 °F 72.0 °F 63% 29.94 in 10.0 mi Variable 3.5 mph - N/A   Clear
10:56 AM 90.0 °F 96.9 °F 72.0 °F 55% 29.94 in 10.0 mi Variable 3.5 mph - N/A   Partly Cloudy
11:56 AM 93.0 °F 100.7 °F 72.0 °F 50% 29.93 in 10.0 mi NW 4.6 mph - N/A   Clear
12:56 PM 93.9 °F 100.3 °F 70.0 °F 46% 29.91 in 10.0 mi Calm Calm - N/A   Scattered Clouds
1:56 PM 97.0 °F 102.8 °F 69.1 °F 40% 29.89 in 10.0 mi Variable 4.6 mph - N/A   Clear
2:56 PM 95.0 °F 99.5 °F 68.0 °F 41% 29.88 in 10.0 mi Calm Calm - N/A   Mostly Cloudy
3:56 PM 97.0 °F 102.8 °F 69.1 °F 40% 29.85 in 10.0 mi ENE 3.5 mph - N/A   Mostly Cloudy
4:56 PM 97.0 °F 102.2 °F 68.0 °F 39% 29.84 in 10.0 mi Variable 3.5 mph - N/A   Scattered Clouds
5:56 PM 96.1 °F 102.9 °F 70.0 °F 43% 29.84 in 10.0 mi Calm Calm - N/A   Overcast
6:56 PM 91.9 °F 99.5 °F 72.0 °F 52% 29.83 in 10.0 mi Calm Calm - N/A   Mostly Cloudy
7:56 PM 84.9 °F 94.1 °F 75.9 °F 74% 29.84 in 10.0 mi Calm Calm - N/A   Partly Cloudy
8:56 PM 82.0 °F 89.4 °F 75.9 °F 82% 29.86 in 10.0 mi Calm Calm - N/A   Clear
9:56 PM 81.0 °F 86.7 °F 75.0 °F 82% 29.86 in 10.0 mi Calm Calm - N/A   Clear
10:56 PM 79.0 °F - 75.0 °F 88% 29.87 in 10.0 mi Calm Calm - N/A   Clear
11:56 PM 79.0 °F - 73.9 °F 84% 29.87 in 10.0 mi Calm Calm - N/A   Clear